Location: Ammerl�gen
(47.2167°N, 9.6000°E)
Time: 03:33:00
(UTC+00:00)

Cosmos 1190 Rocket - Pass Details

Date: 21 April 2021
Orbit: 757 x 779 km, 74.1° (Epoch: 16 May)

Event Time Altitude Azimuth Distance (km) Brightness Sun altitude
Rises 19:52:24 0° 188° (S) 3,224 6.9 -14.8°
Reaches altitude 10° 19:54:47 10° 184° (S) 2,298 6.2 -15.1°
Maximum altitude 19:59:53 58° 107° (ESE) 892 4.0 -15.8°
Drops below altitude 10° 20:05:00 10° 29° (NNE) 2,302 6.6 -16.4°
Sets 20:07:24 0° 26° (NNE) 3,230 7.4 -16.7°
